Showing default

YUNHAI 2-1F, 43915

Orbit data source: Space-Track

YUNHAI 2-1F, 43915 is a payload satellite owned by CASC (CN) in LEO that was launched on Sat, 29 Dec 2018 UTC via a CHANG ZHENG 2D/YZ-3 launch vehicle from the Jiuquan Satellite Launch Center, China (JSC). Payload-class satellites include a variety of spacecraft equipped with specific instruments for various scientific and technological missions. These include communications satellites like Starlink; space stations such as the ISS; scientific satellites like the Hubble; Earth observation satellites from companies like Planet Labs, Umbra, and HawkEye 360; GPS; miniature CubeSats for education and research; and military/defense satellites.

Loading next visibility...
Identifier
43915, 2018-112G
Orbit
LEO
Country
Flag of CNCN / PRC
Related business
Manufacturer
DFH Shenzhen
Mission
Operational Defense Meteo Radio Occ.
Bus & Motor
YH-2, Unknown motor
Mass
~100 kg wet, ~100 kg dry
Launch date (UTC)
2018-12-29 (7 years ago)
Launch vehicle
CHANG ZHENG 2D/YZ-3
Launch site
Jiuquan Satellite Launch Center, China (JSC)
Object type
Payload
Rocket body
Debris
Shape & HBR
Box + 2 Pan, 0.5 m
Radar Cross Section
0.166 m², Large (>1 m²)

Expand to show TLE details & history
Last TLE update: 9 hours ago

TLE from 9 hours ago
0 YUNHAI 2-1F
1 43915U 18112G   25258.26228041  .00000180  00000-0  13449-3 0  9995
2 43915  50.0119 314.5249 0006892  83.5284 276.6416 14.28849781348990
Epoch: 2025-09-15T06:17Z
TLE epoch observation values (Epoch: 2025-09-15T06:17:41.027Z)
Latitude
-0°
Longitude
-134.36551°
Altitude
795.542 km
Speed
7.457 km/s
True Right ascension
20h 58m 05s
True Declination
0° 00' 00"
Sunlit
Object was in full shadow at epoch
Visualization orbit readout
Latitude
Unknown
Longitude
Unknown
Altitude
Unknown
Speed
Unknown
Apparent Right ascension
Unknown
Apparent Declination
Unknown
Sunlit
N/A
Visualization observer readout
Local Sidereal Time
07:39:24
Azimuth
Unknown
Elevation
Unknown
Doppler factor
Unknown
Orbital elements
Apogee altitude
801.261 km
Perigee altitude
791.371 km
Semi-major axis
7,174.453 km
Eccentricity
0.00069
Inclination
50.0119°
RAAN
314.5249°
Arg. of periapsis
83.5284°
True anomaly
276.56315°
Mean anomaly
276.6416°
Eccentric anomaly
276.60237°
Mean motion
3.57158 °/min
Orbital period
100.8 mins
BSTAR
0.00013449
Loading maneuver chart data...
Computing Atmospheric mass density...
Loading historical data...
Loading historical data...
Loading historical data...
Loading historical data...
Loading historical data...
Loading historical data...
Loading historical data...

Documentation

Showing up to 5 results
|